Kelso-Longview, WA
on Tuesday, January 15, 2013

Tuesday
Previous Day Next Day
Daily Summary
 ActualAverage (KSPB)Record (KSPB)
Temperature
Mean Temperature °F °F  
Max Temperature 35°F °F 56°F (2011)
Min Temperature 33°F °F 17°F (2007)
Degree Days
Heating Degree Days 31    
Month to date heating degree days  
Since 1 July heating degree days  
Cooling Degree Days 0    
Month to date cooling degree days  
Year to date cooling degree days  
Moisture
Dew Point 30°F   
Average Humidity 84    
Maximum Humidity 87    
Minimum Humidity 81    
Precipitation
Precipitation 0.00 in in 0.80 in (2011)
Month to date precipitation  
Year to date precipitation  
Wind
Wind Speed 3 mph   
Max Wind Speed 8 mph   
Max Gust Speed mph   
Visibility 8 miles   
Events     

Key: T is trace of precipitation, MM is missing value
Source: NWS Daily Summary
Time(PST)TemperatureDew PointHumidity Pressure Visibility Wind DirectionWind SpeedGust SpeedPrecipitationEvents Conditions
12:15 AM 33.8°F 30.2°F 87% 30.58 in 2.5 miles SE 4.6 mph - N/A   Overcast
12:35 AM 33.8°F 30.2°F 87% 30.58 in 3.0 miles SE 5.8 mph - N/A   Overcast
1:15 AM 33.8°F 30.2°F 87% 30.58 in 5.0 miles SE 3.5 mph - N/A   Overcast
1:35 AM 33.8°F 30.2°F 87% 30.59 in 5.0 miles SE 3.5 mph - N/A   Mostly Cloudy
1:55 AM 33.8°F 30.2°F 87% 30.59 in 5.0 miles SE 3.5 mph - N/A   Overcast
2:15 AM 33.8°F 30.2°F 87% 30.61 in 5.0 miles ESE 3.5 mph - N/A   Overcast
2:55 AM 33.8°F 30.2°F 87% 30.62 in 5.0 miles SE 4.6 mph - N/A   Overcast
3:15 AM 33.8°F 30.2°F 87% 30.62 in 5.0 miles Calm Calm - N/A   Overcast
3:35 AM 33.8°F 30.2°F 87% 30.62 in 6.0 miles Calm Calm - N/A   Overcast
4:15 AM 33.8°F 30.2°F 87% 30.62 in 5.0 miles East 3.5 mph - N/A   Overcast
4:35 AM 33.8°F 30.2°F 87% 30.62 in 5.0 miles Calm Calm - N/A   Overcast
4:55 AM 33.8°F 30.2°F 87% 30.61 in 5.0 miles Calm Calm - N/A   Overcast
5:15 AM 33.8°F 30.2°F 87% 30.62 in 6.0 miles Calm Calm - N/A   Overcast
5:35 AM 33.8°F 30.2°F 87% 30.62 in 6.0 miles North 3.5 mph - N/A   Overcast
5:55 AM 33.8°F 30.2°F 87% 30.62 in 5.0 miles NNW 3.5 mph - N/A   Overcast
6:15 AM 33.8°F 30.2°F 87% 30.62 in 4.0 miles Calm Calm - N/A   Overcast
6:35 AM 33.8°F 30.2°F 87% 30.63 in 4.0 miles Calm Calm - N/A   Overcast
6:55 AM 33.8°F 30.2°F 87% 30.64 in 4.0 miles Calm Calm - N/A   Overcast
7:15 AM 33.8°F 30.2°F 87% 30.64 in 4.0 miles NW 4.6 mph - N/A   Overcast
7:35 AM 33.8°F 30.2°F 87% 30.65 in 5.0 miles NNW 4.6 mph - N/A   Overcast
7:55 AM 33.8°F 30.2°F 87% 30.65 in 5.0 miles NW 3.5 mph - N/A   Overcast
8:15 AM 33.8°F 30.2°F 87% 30.66 in 7.0 miles NW 3.5 mph - N/A   Overcast
8:35 AM 33.8°F 30.2°F 87% 30.67 in 10.0 miles North 8.1 mph - N/A   Overcast
8:55 AM 33.8°F 30.2°F 87% 30.68 in 10.0 miles NNE 4.6 mph - N/A   Overcast
9:15 AM 33.8°F 30.2°F 87% 30.68 in 10.0 miles NNE 4.6 mph - N/A   Overcast
9:35 AM 33.8°F 30.2°F 87% 30.68 in 10.0 miles NW 4.6 mph - N/A   Overcast
9:55 AM 33.8°F 30.2°F 87% 30.69 in 10.0 miles NNW 6.9 mph - N/A   Overcast
10:15 AM 33.8°F 30.2°F 87% 30.69 in 10.0 miles NNW 6.9 mph - N/A   Overcast
10:35 AM 35.6°F 30.2°F 81% 30.69 in 10.0 miles North 4.6 mph - N/A   Overcast
10:55 AM 35.6°F 30.2°F 81% 30.69 in 10.0 miles NNW 5.8 mph - N/A   Overcast
11:15 AM 35.6°F 30.2°F 81% 30.69 in 10.0 miles North 8.1 mph - N/A   Overcast
11:35 AM 35.6°F 30.2°F 81% 30.69 in 10.0 miles North 6.9 mph - N/A   Overcast
11:55 AM 35.6°F 30.2°F 81% 30.69 in 10.0 miles North 4.6 mph - N/A   Overcast
12:15 PM 35.6°F 30.2°F 81% 30.69 in 10.0 miles North 4.6 mph - N/A   Overcast
12:35 PM 35.6°F 30.2°F 81% 30.68 in 10.0 miles North 5.8 mph - N/A   Overcast
12:55 PM 35.6°F 30.2°F 81% 30.68 in 10.0 miles Calm Calm - N/A   Overcast
1:15 PM 35.6°F 30.2°F 81% 30.68 in 10.0 miles NE 5.8 mph - N/A   Overcast
1:35 PM 35.6°F 30.2°F 81% 30.68 in 10.0 miles NNE 5.8 mph - N/A   Overcast
1:55 PM 35.6°F 30.2°F 81% 30.68 in 10.0 miles NE 4.6 mph - N/A   Overcast
2:15 PM 35.6°F 30.2°F 81% 30.68 in 10.0 miles NNE 3.5 mph - N/A   Overcast
2:35 PM 35.6°F 30.2°F 81% 30.68 in 10.0 miles NNE 4.6 mph - N/A   Overcast
2:55 PM 35.6°F 30.2°F 81% 30.68 in 10.0 miles NNE 5.8 mph - N/A   Overcast
3:15 PM 35.6°F 30.2°F 81% 30.68 in 10.0 miles NE 3.5 mph - N/A   Overcast
3:35 PM 35.6°F 30.2°F 81% 30.68 in 10.0 miles Calm Calm - N/A   Overcast
3:55 PM 35.6°F 30.2°F 81% 30.68 in 10.0 miles NNW 3.5 mph - N/A   Overcast
4:15 PM 35.6°F 30.2°F 81% 30.68 in 10.0 miles Calm Calm - N/A   Overcast
4:35 PM 35.6°F 30.2°F 81% 30.68 in 10.0 miles Calm Calm - N/A   Overcast
4:55 PM 35.6°F 30.2°F 81% 30.67 in 10.0 miles Calm Calm - N/A   Overcast
5:15 PM 35.6°F 32.0°F 87% 30.67 in 10.0 miles Calm Calm - N/A   Overcast
5:35 PM 35.6°F 32.0°F 87% 30.67 in 10.0 miles Calm Calm - N/A   Overcast
5:55 PM 35.6°F 32.0°F 87% 30.67 in 10.0 miles Calm Calm - N/A   Overcast
6:15 PM 35.6°F 30.2°F 81% 30.67 in 10.0 miles Calm Calm - N/A   Overcast
6:35 PM 35.6°F 30.2°F 81% 30.67 in 10.0 miles SSE 3.5 mph - N/A   Overcast
6:55 PM 35.6°F 30.2°F 81% 30.67 in 10.0 miles Calm Calm - N/A   Overcast
7:15 PM 35.6°F 30.2°F 81% 30.68 in 10.0 miles SSE 3.5 mph - N/A   Overcast
7:35 PM 35.6°F 30.2°F 81% 30.68 in 10.0 miles Calm Calm - N/A   Overcast
7:55 PM 35.6°F 32.0°F 87% 30.68 in 10.0 miles Calm Calm - N/A   Overcast
8:15 PM 35.6°F 32.0°F 87% 30.68 in 10.0 miles ENE 3.5 mph - N/A   Overcast
8:35 PM 35.6°F 30.2°F 81% 30.67 in 8.0 miles Calm Calm - N/A   Overcast
8:55 PM 35.6°F 30.2°F 81% 30.67 in 8.0 miles Calm Calm - N/A   Overcast
9:15 PM 33.8°F 30.2°F 87% 30.67 in 7.0 miles Calm Calm - N/A   Overcast
9:35 PM 33.8°F 30.2°F 87% 30.67 in 7.0 miles Calm Calm - N/A   Overcast
10:15 PM 35.6°F 30.2°F 81% 30.66 in 8.0 miles Calm Calm - N/A   Overcast
10:35 PM 35.6°F 30.2°F 81% 30.66 in 10.0 miles NNE 3.5 mph - N/A   Overcast
10:55 PM 35.6°F 30.2°F 81% 30.66 in 10.0 miles NNE 3.5 mph - N/A   Overcast
11:15 PM 35.6°F 30.2°F 81% 30.66 in 10.0 miles Calm Calm - N/A   Overcast
11:35 PM 35.6°F 30.2°F 81% 30.66 in 10.0 miles Calm Calm - N/A   Overcast
11:55 PM 35.6°F 30.2°F 81% 30.66 in 10.0 miles Calm Calm - N/A   Overcast
Moon Phase
Jan. 15 Jan. 18 Jan. 26 Feb. 03 Feb. 10
Sunrise:07:49 AM (PST) Moon Rise:09:40 AM (PST)1/15
Sunset:04:53 PM (PST) Moon Set:10:08 PM (PST)1/15

Copyright © 2014 The Weather Underground, Inc.